• In Slovakia
  • List of Countries
  • For 7 days
  • Water Temperature
  • Satellite Maps
  • Weather Map
  • Weather Widgets
  • user-avatar
    Login

    Hourly Weather Rio Branco

    Today, 16 October, Tuesday

    Time Temperature Precipitation Wind Pressure Humidity
    00:00 +28°C° 0 mm 1 mps 744 mmHg 72%
    01:00 +27°C° 0 mm 1 mps 744 mmHg 75%
    02:00 +27°C° 0 mm 1 mps 744 mmHg 78%
    03:00 +26°C° 0 mm 1 mps 744 mmHg 81%
    04:00 +26°C° 0 mm 1 mps 743 mmHg 83%
    05:00 +27°C° 0 mm 1 mps 744 mmHg 79%
    06:00 +28°C° 0 mm 1 mps 744 mmHg 74%
    07:00 +30°C° 0 mm 1 mps 745 mmHg 70%
    08:00 +32°C° 0 mm 1 mps 745 mmHg 60%
    09:00 +36°C° 0 mm 2 mps 745 mmHg 50%
    10:00 +38°C° 0 mm 2 mps 745 mmHg 40%
    11:00 +38°C° 0 mm 2 mps 744 mmHg 40%
    12:00 +38°C° 0 mm 2 mps 743 mmHg 41%
    13:00 +37°C° 0 mm 1 mps 742 mmHg 42%
    14:00 +36°C° 0 mm 1 mps 742 mmHg 42%
    15:00 +37°C° 0 mm 2 mps 741 mmHg 42%
    16:00 +37°C° 0 mm 2 mps 740 mmHg 41%
    17:00 +34°C° 0 mm 1 mps 741 mmHg 47%
    18:00 +32°C° 0 mm 1 mps 741 mmHg 53%
    19:00 +30°C° 0 mm 1 mps 741 mmHg 59%
    20:00 +30°C° 0 mm 1 mps 742 mmHg 61%
    21:00 +29°C° 0 mm 1 mps 742 mmHg 62%
    22:00 +27°C° 0 mm 0 mps 743 mmHg 64%
    23:00 +26°C° 0 mm 0 mps 742 mmHg 65%

    Tomorrow, 17 October, Wednesday

    Time Temperature Precipitation Wind Pressure Humidity
    00:00 +26°C° 0 mm 0 mps 742 mmHg 67%
    01:00 +26°C° 0 mm 0 mps 742 mmHg 68%
    02:00 +27°C° 0 mm 1 mps 742 mmHg 70%
    03:00 +27°C° 0 mm 1 mps 742 mmHg 71%
    04:00 +27°C° 0 mm 1 mps 742 mmHg 72%
    05:00 +28°C° 0 mm 1 mps 743 mmHg 69%
    06:00 +29°C° 0 mm 1 mps 744 mmHg 65%
    07:00 +31°C° 0 mm 1 mps 744 mmHg 62%
    08:00 +33°C° 0 mm 1 mps 744 mmHg 53%
    09:00 +37°C° 0 mm 2 mps 744 mmHg 45%
    10:00 +39°C° 0 mm 2 mps 744 mmHg 37%
    11:00 +40°C° 0 mm 2 mps 743 mmHg 36%
    12:00 +40°C° 0 mm 2 mps 742 mmHg 35%
    13:00 +40°C° 0 mm 2 mps 741 mmHg 35%
    14:00 +40°C° 0 mm 2 mps 741 mmHg 35%
    15:00 +40°C° 0 mm 2 mps 740 mmHg 36%
    16:00 +39°C° 0 mm 2 mps 739 mmHg 36%
    17:00 +36°C° 0 mm 1 mps 740 mmHg 42%
    18:00 +34°C° 0 mm 1 mps 740 mmHg 48%
    19:00 +32°C° 0 mm 1 mps 741 mmHg 54%
    20:00 +31°C° 0 mm 1 mps 741 mmHg 56%
    21:00 +29°C° 0 mm 0 mps 742 mmHg 57%
    22:00 +28°C° 0 mm 0 mps 742 mmHg 59%
    23:00 +28°C° 0 mm 0 mps 742 mmHg 60%

    Day after tomorrow, 18 October, Thursday

    Time Temperature Precipitation Wind Pressure Humidity
    00:00 +30°C° 0 mm 1 mps 741 mmHg 61%
    01:00 +29°C° 0 mm 1 mps 741 mmHg 62%
    02:00 +29°C° 0 mm 1 mps 741 mmHg 64%
    03:00 +29°C° 0 mm 1 mps 741 mmHg 66%
    04:00 +28°C° 0 mm 1 mps 741 mmHg 68%
    05:00 +30°C° 0 mm 1 mps 742 mmHg 64%
    06:00 +31°C° 0 mm 1 mps 742 mmHg 60%
    07:00 +32°C° 0 mm 1 mps 743 mmHg 56%
    08:00 +35°C° 0 mm 1 mps 743 mmHg 48%
    09:00 +39°C° 0 mm 1 mps 744 mmHg 39%
    10:00 +41°C° 0 mm 2 mps 744 mmHg 31%
    11:00 +41°C° 0 mm 1 mps 743 mmHg 32%
    12:00 +40°C° 0 mm 1 mps 742 mmHg 33%
    13:00 +40°C° 0 mm 1 mps 741 mmHg 34%
    14:00 +39°C° 0 mm 1 mps 741 mmHg 35%
    15:00 +39°C° 0 mm 1 mps 740 mmHg 36%
    16:00 +39°C° 0 mm 1 mps 740 mmHg 37%
    17:00 +36°C° 0 mm 1 mps 740 mmHg 42%
    18:00 +34°C° 0 mm 1 mps 741 mmHg 48%
    19:00 +32°C° 0 mm 1 mps 741 mmHg 53%
    20:00 +32°C° 0.2 mm 1 mps 742 mmHg 56%
    21:00 +31°C° 0.2 mm 1 mps 742 mmHg 59%
    22:00 +31°C° 0.2 mm 1 mps 743 mmHg 62%
    23:00 +30°C° 0.2 mm 1 mps 742 mmHg 65%

    19 October, Friday

    Time Temperature Precipitation Wind Pressure Humidity
    00:00 +30°C° 0.2 mm 1 mps 742 mmHg 69%
    01:00 +29°C° 0.2 mm 1 mps 742 mmHg 72%
    02:00 +29°C° 0.1 mm 1 mps 742 mmHg 73%
    03:00 +29°C° 0.1 mm 1 mps 742 mmHg 75%
    04:00 +28°C° 0.1 mm 1 mps 742 mmHg 76%
    05:00 +29°C° 0 mm 1 mps 742 mmHg 73%
    06:00 +30°C° 0 mm 1 mps 742 mmHg 70%
    07:00 +31°C° 0 mm 1 mps 743 mmHg 68%
    08:00 +34°C° 0 mm 1 mps 743 mmHg 55%
    09:00 +37°C° 0 mm 1 mps 743 mmHg 42%
    10:00 +42°C° 0 mm 1 mps 743 mmHg 30%
    11:00 +41°C° 0 mm 1 mps 742 mmHg 31%
    12:00 +41°C° 0 mm 1 mps 741 mmHg 32%
    13:00 +40°C° 0 mm 1 mps 740 mmHg 33%
    14:00 +36°C° 0 mm 0 mps 740 mmHg 36%
    15:00 +35°C° 0 mm 0 mps 739 mmHg 38%
    16:00 +34°C° 0 mm 0 mps 739 mmHg 41%
    17:00 +33°C° 0 mm 0 mps 739 mmHg 44%
    18:00 +32°C° 0 mm 0 mps 740 mmHg 47%
    19:00 +32°C° 0 mm 1 mps 740 mmHg 49%
    20:00 +31°C° 0 mm 1 mps 741 mmHg 51%
    21:00 +31°C° 0 mm 1 mps 741 mmHg 53%
    22:00 +30°C° 0 mm 1 mps 741 mmHg 55%
    23:00 +30°C° 0 mm 1 mps 741 mmHg 57%

    20 October, Saturday

    Time Temperature Precipitation Wind Pressure Humidity
    00:00 +29°C° 0 mm 1 mps 741 mmHg 60%
    01:00 +29°C° 0 mm 1 mps 740 mmHg 62%
    02:00 +28°C° 0.1 mm 1 mps 741 mmHg 65%
    03:00 +28°C° 0.1 mm 1 mps 741 mmHg 69%
    04:00 +25°C° 0.1 mm 0 mps 741 mmHg 72%
    05:00 +28°C° 0 mm 1 mps 742 mmHg 70%
    06:00 +29°C° 0 mm 1 mps 743 mmHg 67%
    07:00 +31°C° 0 mm 2 mps 743 mmHg 64%
    08:00 +34°C° 0 mm 2 mps 743 mmHg 56%
    09:00 +37°C° 0 mm 2 mps 743 mmHg 48%
    10:00 +39°C° 0 mm 2 mps 743 mmHg 40%
    11:00 +40°C° 0 mm 2 mps 742 mmHg 38%
    12:00 +40°C° 0 mm 1 mps 741 mmHg 36%
    13:00 +41°C° 0 mm 1 mps 740 mmHg 34%
    14:00 +40°C° 0 mm 1 mps 740 mmHg 37%
    15:00 +39°C° 0 mm 1 mps 739 mmHg 41%
    16:00 +37°C° 0 mm 1 mps 739 mmHg 44%
    17:00 +35°C° 2 mm 2 mps 739 mmHg 53%
    18:00 +32°C° 2 mm 2 mps 739 mmHg 63%
    19:00 +30°C° 2 mm 2 mps 740 mmHg 72%
    20:00 +29°C° 0.4 mm 2 mps 740 mmHg 76%
    21:00 +29°C° 0.4 mm 1 mps 741 mmHg 80%
    22:00 +28°C° 0.4 mm 1 mps 741 mmHg 84%
    23:00 +28°C° 0.2 mm 1 mps 741 mmHg 86%

    21 October, Sunday

    Time Temperature Precipitation Wind Pressure Humidity
    00:00 +28°C° 0.2 mm 1 mps 741 mmHg 88%
    01:00 +27°C° 0.2 mm 1 mps 741 mmHg 90%
    02:00 +27°C° 2.8 mm 2 mps 741 mmHg 91%
    03:00 +27°C° 2.8 mm 2 mps 741 mmHg 93%
    04:00 +26°C° 2.8 mm 2 mps 741 mmHg 95%
    05:00 +26°C° 3 mm 2 mps 742 mmHg 95%
    06:00 +26°C° 3 mm 2 mps 743 mmHg 96%
    07:00 +26°C° 3 mm 2 mps 744 mmHg 96%
    08:00 +26°C° 3.1 mm 2 mps 744 mmHg 95%
    09:00 +27°C° 3.1 mm 2 mps 744 mmHg 93%
    10:00 +27°C° 3.1 mm 2 mps 744 mmHg 91%
    11:00 +29°C° 0.6 mm 2 mps 743 mmHg 82%
    12:00 +30°C° 0.6 mm 2 mps 742 mmHg 73%
    13:00 +32°C° 0.6 mm 2 mps 741 mmHg 64%
    14:00 +32°C° 0 mm 2 mps 741 mmHg 62%
    15:00 +32°C° 0 mm 2 mps 741 mmHg 60%
    16:00 +32°C° 0 mm 2 mps 741 mmHg 59%
    17:00 +31°C° 0 mm 1 mps 741 mmHg 65%
    18:00 +29°C° 0 mm 1 mps 741 mmHg 72%
    19:00 +28°C° 0 mm 1 mps 742 mmHg 78%
    20:00 +27°C° 0 mm 1 mps 742 mmHg 80%
    21:00 +25°C° 0 mm 0 mps 742 mmHg 82%
    22:00 +25°C° 0 mm 0 mps 742 mmHg 84%
    23:00 +24°C° 0 mm 0 mps 741 mmHg 84%
    Show more